Retour au catalogue

STARLINK-34824

ActifCommunicationsVLEO
NORAD 65042·PAYLOAD·🇺🇸 United States

Lancé Jul 30, 2025 depuis Cape Canaveral Space Force Station

Loading…

Prochains Passages (prochaines 24 heures)

TLE

FraisSource: CelesTrak SupGP

Époque: Sep 14, 2026, 21:03 UTC

1 65042C 25161AD  26257.87756944 -.00091418  00000+0 -27001-2 0  2577
2 65042  53.1565 131.8784 0001272  81.2441 349.7512 15.34446295    13

Suivez STARLINK-34824 en temps réel avec AllMySat

Download on the App Store